Location: Mauries
(43.6188°N, 0.3322°W)
Time: 20:10:14
(UTC+00:00)

ATLAS 2AS CENTAUR R/B - Pass Details

Date: 14 January 2026
Orbit: 1050 x 1161 km, 63.7° (Epoch: 10 February)

Event Time Altitude Azimuth Distance (km) Brightness Sun altitude
Exits shadow 04:23:04 18° 2° (N) 2,358 4.5 -33.7°
Maximum altitude 04:25:08 20° 25° (NNE) 2,222 4.6 -33.3°
Drops below altitude 10° 04:29:55 10° 71° (ENE) 2,866 5.7 -32.5°
Sets 04:33:23 0° 88° (E) 3,821 6.7 -31.8°
